Weather History for Newberry, SC

Change the Weather History Date:

Monday, September 1, 2014

  Actual Average (KFDW) Record (KFDW)
Temperature  
Mean Temperature 84 °F -  
Max Temperature 96 °F 87 °F 96 °F (2010)
Min Temperature 71 °F 66 °F 66 °F (2011)
Cooling Degree Days 18    
Growing Degree Days 34 (Base 50)    
Moisture  
Dew Point 66 °F    
Average Humidity 66    
Maximum Humidity 100    
Minimum Humidity 26    
Precipitation  
Precipitation 0.00 in - - ()
Sea Level Pressure  
Sea Level Pressure 30.13 in    
Wind  
Wind Speed 3 mph (SW)    
Max Wind Speed 14 mph    
Max Gust Speed 21 mph    
Visibility 10 miles    
Events Thunderstorm    
Averages and records for this station are not official NWS values.
T = Trace of Precipitation, MM = Missing Value Source: NWS Daily Summary

Daily Weather History Graph

Daily Weather History Graph

Search for Another Location

Airport:

Trip Planner

Search our weather history database for the weather conditions in past years. The results will help you decide how hot, cold, wet, or windy it might be!

Date:

Astronomy

Sep. 01, 2014 Rise Set
Actual Time 6:59 AM EDT 7:52 PM EDT
Civil Twilight 6:34 AM EDT 8:18 PM EDT
Nautical Twilight 6:03 AM EDT 8:48 PM EDT
Astronomical Twilight 5:32 AM EDT 9:19 PM EDT
Moon 1:26 PM EDT (9/1) No Moon Set
Length of Visible Light 13h 43m
Length of Day
12h 52m
Waxing Crescent, 42% of the Moon is Illuminated
Sep 1
Waxing Crescent
Sep 2
First Quarter
Sep 8
Full
Sep 15
Last Quarter
Sep 24
New

Hourly Weather History & Observations

Time (EDT) Temp. Heat Index Dew Point Humidity Pressure Visibility Wind Dir Wind Speed Gust Speed Precip Events Conditions
12:15 AM 77.0 °F - 69.8 °F 78% 30.13 in 10.0 mi SSW 4.6 mph - N/A   Clear
12:35 AM 77.0 °F - 69.8 °F 78% 30.13 in 10.0 mi SW 3.5 mph - N/A   Clear
12:55 AM 75.2 °F - 71.6 °F 89% 30.13 in 10.0 mi South 3.5 mph - N/A   Clear
1:15 AM 75.2 °F - 71.6 °F 89% 30.13 in 10.0 mi Calm Calm - N/A   Clear
1:35 AM 75.2 °F - 71.6 °F 89% 30.13 in 10.0 mi SSW 3.5 mph - N/A   Clear
1:55 AM 75.2 °F - 71.6 °F 89% 30.13 in 10.0 mi SSW 3.5 mph - N/A   Clear
2:15 AM 73.4 °F - 71.6 °F 94% 30.12 in 10.0 mi Calm Calm - N/A   Clear
2:35 AM 73.4 °F - 73.4 °F 100% 30.13 in 10.0 mi South 4.6 mph - N/A   Clear
2:55 AM 73.4 °F - 73.4 °F 100% 30.13 in 10.0 mi South 3.5 mph - N/A   Clear
3:15 AM 73.4 °F - 73.4 °F 100% 30.13 in 10.0 mi SSW 3.5 mph - N/A   Clear
3:35 AM 73.4 °F - 73.4 °F 100% 30.13 in 10.0 mi South 4.6 mph - N/A   Clear
3:55 AM 73.4 °F - 73.4 °F 100% 30.13 in 10.0 mi SSW 3.5 mph - N/A   Clear
4:15 AM 71.6 °F - 71.6 °F 100% 30.13 in 10.0 mi SSW 4.6 mph - N/A   Clear
4:35 AM 71.6 °F - 71.6 °F 100% 30.13 in 10.0 mi Calm Calm - N/A   Clear
4:55 AM 71.6 °F - 71.6 °F 100% 30.13 in 10.0 mi Calm Calm - N/A   Clear
5:15 AM 71.6 °F - 71.6 °F 100% 30.14 in 10.0 mi SSW 3.5 mph - N/A   Clear
5:35 AM 71.6 °F - 71.6 °F 100% 30.14 in 10.0 mi SSW 3.5 mph - N/A   Clear
5:55 AM 71.6 °F - 71.6 °F 100% 30.14 in 7.0 mi Calm Calm - N/A   Clear
6:15 AM 71.6 °F - 71.6 °F 100% 30.14 in 7.0 mi Calm Calm - N/A   Clear
6:35 AM 71.6 °F - 71.6 °F 100% 30.15 in 7.0 mi WSW 3.5 mph - N/A   Clear
6:55 AM 71.6 °F - 71.6 °F 100% 30.15 in 10.0 mi WSW 3.5 mph - N/A   Clear
7:15 AM 71.6 °F - 71.6 °F 100% 30.16 in 7.0 mi Calm Calm - N/A   Clear
7:35 AM 71.6 °F - 71.6 °F 100% 30.16 in 7.0 mi Calm Calm - N/A   Clear
7:55 AM 71.6 °F - 71.6 °F 100% 30.16 in 10.0 mi Calm Calm - N/A   Clear
8:15 AM 73.4 °F - 73.4 °F 100% 30.16 in 10.0 mi Calm Calm - N/A   Clear
8:55 AM 77.0 °F - 73.4 °F 89% 30.16 in 10.0 mi Calm Calm - N/A   Clear
9:15 AM 78.8 °F - 71.6 °F 78% 30.16 in 10.0 mi West 3.5 mph - N/A   Clear
9:35 AM 80.6 °F 83.9 °F 69.8 °F 70% 30.16 in 10.0 mi Calm Calm - N/A   Clear
9:55 AM 82.4 °F 86.3 °F 69.8 °F 66% 30.16 in 10.0 mi WNW 3.5 mph - N/A   Clear
10:15 AM 86.0 °F 89.4 °F 68.0 °F 55% 30.17 in 10.0 mi West 3.5 mph - N/A   Clear
10:35 AM 87.8 °F 91.4 °F 68.0 °F 52% 30.16 in 10.0 mi Calm Calm - N/A   Clear
11:15 AM 89.6 °F 92.2 °F 66.2 °F 46% 30.15 in 10.0 mi Calm Calm - N/A   Clear
11:35 AM 91.4 °F 93.2 °F 64.4 °F 41% 30.15 in 10.0 mi SW 6.9 mph - N/A   Clear
11:55 AM 89.6 °F 90.1 °F 62.6 °F 40% 30.15 in 10.0 mi WSW 3.5 mph - N/A   Clear
12:15 PM 91.4 °F 91.4 °F 60.8 °F 36% 30.15 in 10.0 mi SSW 3.5 mph - N/A   Clear
12:35 PM 93.2 °F 93.3 °F 60.8 °F 34% 30.14 in 10.0 mi WSW 4.6 mph - N/A   Clear
12:55 PM 93.2 °F 91.9 °F 57.2 °F 30% 30.14 in 10.0 mi Calm Calm - N/A   Clear
1:15 PM 95.0 °F 93.7 °F 57.2 °F 28% 30.13 in 10.0 mi West 5.8 mph - N/A   Clear
1:35 PM 95.0 °F 93.7 °F 57.2 °F 28% 30.12 in 10.0 mi NNW 5.8 mph - N/A   Clear
1:55 PM 95.0 °F 93.7 °F 57.2 °F 28% 30.12 in 10.0 mi West 3.5 mph - N/A   Clear
2:15 PM 95.0 °F 93.0 °F 55.4 °F 26% 30.11 in 10.0 mi West 9.2 mph - N/A   Clear
2:35 PM 95.0 °F 93.7 °F 57.2 °F 28% 30.11 in 10.0 mi NW 6.9 mph - N/A   Clear
2:55 PM 95.0 °F 93.7 °F 57.2 °F 28% 30.10 in 10.0 mi NW 8.1 mph - N/A   Clear
3:15 PM 95.0 °F 94.4 °F 59.0 °F 30% 30.09 in 10.0 mi WNW 3.5 mph - N/A   Scattered Clouds
3:35 PM 96.8 °F 96.2 °F 59.0 °F 28% 30.09 in 10.0 mi WNW 10.4 mph - N/A   Scattered Clouds
3:55 PM 95.0 °F 94.4 °F 59.0 °F 30% 30.08 in 10.0 mi NNW 3.5 mph - N/A   Scattered Clouds
4:15 PM 95.0 °F 94.4 °F 59.0 °F 30% 30.08 in 10.0 mi NNW 9.2 mph - N/A   Clear
4:35 PM 95.0 °F 95.2 °F 60.8 °F 32% 30.07 in 10.0 mi NNW 5.8 mph - N/A   Scattered Clouds
4:55 PM 91.4 °F 91.4 °F 60.8 °F 36% 30.07 in 10.0 mi NW 6.9 mph - N/A   Scattered Clouds
5:15 PM 93.2 °F 93.3 °F 60.8 °F 34% 30.08 in 10.0 mi NNW 8.1 mph - N/A Thunderstorm Thunderstorm
5:35 PM 86.0 °F 86.6 °F 62.6 °F 45% 30.10 in 10.0 mi SSE 13.8 mph 20.7 mph N/A Thunderstorm Thunderstorm
5:55 PM 84.2 °F 85.6 °F 64.4 °F 51% 30.10 in 10.0 mi SE 9.2 mph 17.3 mph N/A Thunderstorm Overcast
6:15 PM 82.4 °F 83.4 °F 62.6 °F 51% 30.10 in 10.0 mi ESE 6.9 mph 16.1 mph N/A   Scattered Clouds
6:35 PM 84.2 °F 85.0 °F 62.6 °F 48% 30.09 in 10.0 mi ESE 5.8 mph - N/A Thunderstorm Clear
6:55 PM 86.0 °F 86.6 °F 62.6 °F 45% 30.09 in 10.0 mi Calm Calm - N/A   Clear
7:15 PM 84.2 °F 85.0 °F 62.6 °F 48% 30.09 in 10.0 mi SE 3.5 mph - N/A   Clear
7:35 PM 82.4 °F 82.9 °F 60.8 °F 48% 30.10 in 10.0 mi ESE 3.5 mph - N/A   Clear
7:55 PM 82.4 °F 83.4 °F 62.6 °F 51% 30.10 in 10.0 mi South 3.5 mph - N/A   Clear
8:15 PM 80.6 °F 81.8 °F 62.6 °F 54% 30.10 in 10.0 mi South 3.5 mph - N/A   Clear
8:35 PM 80.6 °F 81.8 °F 62.6 °F 54% 30.10 in 10.0 mi SSE 5.8 mph - N/A   Clear
8:55 PM 80.6 °F 82.3 °F 64.4 °F 58% 30.10 in 10.0 mi South 3.5 mph - N/A   Clear
9:15 PM 80.6 °F 82.3 °F 64.4 °F 58% 30.11 in 10.0 mi Calm Calm - N/A   Clear
9:35 PM 78.8 °F - 66.2 °F 65% 30.11 in 10.0 mi Calm Calm - N/A   Clear
9:55 PM 77.0 °F - 66.2 °F 69% 30.13 in 10.0 mi Calm Calm - N/A   Clear
10:15 PM 77.0 °F - 68.0 °F 74% 30.13 in 10.0 mi SSW 3.5 mph - N/A   Clear
10:35 PM 77.0 °F - 69.8 °F 78% 30.14 in 10.0 mi SSW 3.5 mph - N/A   Clear
10:55 PM 77.0 °F - 69.8 °F 78% 30.14 in 10.0 mi Calm Calm - N/A   Clear
11:15 PM 77.0 °F - 69.8 °F 78% 30.14 in 10.0 mi Calm Calm - N/A   Clear
11:35 PM 77.0 °F - 69.8 °F 78% 30.13 in 10.0 mi Calm Calm - N/A   Clear
11:55 PM 77.0 °F - 69.8 °F 78% 30.13 in 10.0 mi South 3.5 mph - N/A   Clear